OHDEN LBBG-LYBE

Flight info

Callsign OHDEN
Flight time 1h 38m
Altitude 22000
Route ARNOV T226 GRN Q6 ERDOM Y520 UTEKA DCT OSVIX
Aircraft PC12/L-SDFGRWY/S

Departure

Time 2026-04-25 05:02
Airport Burgas Airport (LBBG)

Arrival

Time 2026-04-25 06:41
Airport Belgrade Nikola Tesla Airport (LYBE)
Time Latitude Longitude Altitude Speed Heading
2026-04-25 04:34 42.56797 27.51987 170 ft 0 kts 226°
2026-04-25 04:49 42.56807 27.52001 170 ft 4 kts 229°
2026-04-25 04:50 42.56822 27.52031 170 ft 4 kts 242°
2026-04-25 04:50 42.56823 27.52060 170 ft 1 kts 314°
2026-04-25 04:57 42.56837 27.52040 170 ft 7 kts 314°
2026-04-25 04:57 42.56886 27.51972 170 ft 8 kts 315°
2026-04-25 04:57 42.56946 27.51958 170 ft 12 kts 41°
2026-04-25 04:57 42.57021 27.52044 170 ft 16 kts 39°
2026-04-25 04:58 42.57114 27.52151 170 ft 19 kts 40°
2026-04-25 04:58 42.57219 27.52271 170 ft 21 kts 39°
2026-04-25 04:58 42.57338 27.52407 170 ft 23 kts 40°
2026-04-25 04:58 42.57463 27.52549 170 ft 24 kts 40°
2026-04-25 04:59 42.57572 27.52668 170 ft 15 kts 28°
2026-04-25 04:59 42.57655 27.52617 170 ft 14 kts 292°
2026-04-25 04:59 42.57658 27.52549 170 ft 0 kts 268°
2026-04-25 05:01 42.57658 27.52506 171 ft 9 kts 270°
2026-04-25 05:01 42.57658 27.52383 171 ft 17 kts 231°
2026-04-25 05:01 42.57637 27.52355 171 ft 4 kts 223°
2026-04-25 05:02 42.57478 27.52143 169 ft 60 kts 224°
2026-04-25 05:02 42.57074 27.51614 304 ft 86 kts 224°
2026-04-25 05:02 42.56635 27.50999 617 ft 96 kts 236°
2026-04-25 05:02 42.56201 27.50224 966 ft 111 kts 235°
2026-04-25 05:03 42.55678 27.49298 1359 ft 137 kts 236°
2026-04-25 05:03 42.55051 27.48185 1758 ft 156 kts 236°
2026-04-25 05:03 42.54373 27.46990 2149 ft 168 kts 236°
2026-04-25 05:03 42.53625 27.45676 2527 ft 182 kts 235°
2026-04-25 05:04 42.52833 27.44285 2912 ft 190 kts 234°
2026-04-25 05:04 42.52012 27.42846 3283 ft 195 kts 234°
2026-04-25 05:04 42.51176 27.41379 3667 ft 199 kts 233°
2026-04-25 05:04 42.50326 27.39888 4036 ft 200 kts 234°
2026-04-25 05:05 42.49478 27.38398 4417 ft 200 kts 234°
2026-04-25 05:05 42.48621 27.36895 4810 ft 202 kts 234°
2026-04-25 05:05 42.47759 27.35384 5189 ft 203 kts 233°
2026-04-25 05:05 42.46892 27.33864 5564 ft 205 kts 233°
2026-04-25 05:06 42.46032 27.32358 5949 ft 205 kts 233°
2026-04-25 05:06 42.45248 27.30759 6331 ft 204 kts 246°
2026-04-25 05:06 42.44926 27.28899 6697 ft 204 kts 268°
2026-04-25 05:06 42.45125 27.26999 7065 ft 205 kts 289°
2026-04-25 05:07 42.45661 27.25223 7437 ft 204 kts 294°
2026-04-25 05:07 42.46210 27.23449 7812 ft 204 kts 293°
2026-04-25 05:07 42.46757 27.21669 8190 ft 205 kts 293°
2026-04-25 05:07 42.47303 27.19887 8575 ft 205 kts 293°
2026-04-25 05:08 42.47849 27.18107 8959 ft 204 kts 294°
2026-04-25 05:08 42.48394 27.16327 9346 ft 204 kts 294°
2026-04-25 05:08 42.49033 27.14623 9748 ft 202 kts 308°
2026-04-25 05:08 42.49970 27.13218 10133 ft 201 kts 314°
2026-04-25 05:09 42.50913 27.11850 10484 ft 202 kts 313°
2026-04-25 05:09 42.51874 27.10444 10842 ft 204 kts 313°
2026-04-25 05:09 42.52842 27.09029 11211 ft 205 kts 313°
2026-04-25 05:09 42.53812 27.07611 11581 ft 206 kts 313°
2026-04-25 05:10 42.54788 27.06185 11961 ft 207 kts 313°
2026-04-25 05:10 42.55767 27.04753 12335 ft 207 kts 313°
2026-04-25 05:10 42.56748 27.03319 12726 ft 208 kts 313°
2026-04-25 05:10 42.57734 27.01875 13119 ft 209 kts 313°
2026-04-25 05:11 42.58725 27.00423 13509 ft 209 kts 313°
2026-04-25 05:11 42.59714 26.98972 13902 ft 209 kts 313°
2026-04-25 05:11 42.60692 26.97540 14246 ft 210 kts 313°
2026-04-25 05:12 42.62674 26.94631 14962 ft 210 kts 313°
2026-04-25 05:12 42.63667 26.93172 15320 ft 211 kts 313°
2026-04-25 05:12 42.64670 26.91699 15639 ft 213 kts 314°
2026-04-25 05:12 42.65680 26.90214 15961 ft 215 kts 314°
2026-04-25 05:13 42.66694 26.88723 16285 ft 215 kts 314°
2026-04-25 05:13 42.67708 26.87230 16613 ft 215 kts 314°
2026-04-25 05:13 42.68727 26.85730 16941 ft 216 kts 314°
2026-04-25 05:13 42.69745 26.84231 17280 ft 216 kts 314°
2026-04-25 05:14 42.70762 26.82731 17618 ft 216 kts 314°
2026-04-25 05:14 42.71787 26.81220 17931 ft 218 kts 314°
2026-04-25 05:14 42.72813 26.79706 18283 ft 218 kts 314°
2026-04-25 05:15 42.74829 26.76623 18894 ft 218 kts 305°
2026-04-25 05:15 42.75540 26.74836 19199 ft 218 kts 300°
2026-04-25 05:15 42.76245 26.73008 19510 ft 218 kts 300°
2026-04-25 05:15 42.76957 26.71185 19821 ft 218 kts 300°
2026-04-25 05:16 42.77672 26.69348 20143 ft 218 kts 300°
2026-04-25 05:16 42.78382 26.67517 20463 ft 219 kts 301°
2026-04-25 05:16 42.79095 26.65677 20739 ft 221 kts 301°
2026-04-25 05:16 42.79818 26.63810 20989 ft 223 kts 301°
2026-04-25 05:17 42.80542 26.61940 21244 ft 224 kts 301°
2026-04-25 05:17 42.81260 26.60084 21493 ft 224 kts 301°
2026-04-25 05:17 42.81988 26.58203 21753 ft 225 kts 301°
2026-04-25 05:17 42.82721 26.56322 22009 ft 226 kts 301°
2026-04-25 05:18 42.83473 26.54394 22022 ft 234 kts 301°
2026-04-25 05:18 42.84244 26.52412 22025 ft 240 kts 301°
2026-04-25 05:18 42.85030 26.50383 22031 ft 244 kts 301°
2026-04-25 05:18 42.85829 26.48321 22032 ft 247 kts 301°
2026-04-25 05:19 42.86637 26.46236 22034 ft 250 kts 301°
2026-04-25 05:19 42.87453 26.44127 22031 ft 252 kts 301°
2026-04-25 05:19 42.88274 26.42005 22032 ft 254 kts 301°
2026-04-25 05:19 42.89098 26.39873 22032 ft 254 kts 301°
2026-04-25 05:20 42.89922 26.37740 22034 ft 254 kts 301°
2026-04-25 05:20 42.90749 26.35598 22032 ft 255 kts 301°
2026-04-25 05:20 42.91576 26.33452 22033 ft 255 kts 301°
2026-04-25 05:20 42.92403 26.31305 22030 ft 255 kts 301°
2026-04-25 05:21 42.93228 26.29164 22035 ft 255 kts 300°
2026-04-25 05:21 42.94053 26.27019 22036 ft 255 kts 301°
2026-04-25 05:21 42.94866 26.24906 22032 ft 255 kts 300°
2026-04-25 05:21 42.95687 26.22767 22034 ft 254 kts 300°
2026-04-25 05:22 42.96508 26.20629 22034 ft 254 kts 300°
2026-04-25 05:22 42.97330 26.18487 22034 ft 255 kts 301°
2026-04-25 05:22 42.98151 26.16345 22036 ft 254 kts 300°
2026-04-25 05:22 42.98973 26.14201 22034 ft 255 kts 300°
2026-04-25 05:23 42.99795 26.12053 22032 ft 255 kts 300°
2026-04-25 05:23 43.00615 26.09908 22035 ft 255 kts 300°
2026-04-25 05:23 43.01435 26.07764 22037 ft 254 kts 300°
2026-04-25 05:23 43.02252 26.05623 22037 ft 254 kts 300°
2026-04-25 05:24 43.03071 26.03479 22038 ft 254 kts 300°
2026-04-25 05:24 43.03883 26.01349 22038 ft 254 kts 300°
2026-04-25 05:24 43.04700 25.99206 22039 ft 254 kts 300°
2026-04-25 05:24 43.05518 25.97056 22037 ft 254 kts 300°
2026-04-25 05:25 43.06334 25.94912 22041 ft 254 kts 300°
2026-04-25 05:25 43.07154 25.92755 22039 ft 255 kts 300°
2026-04-25 05:25 43.07971 25.90605 22038 ft 255 kts 300°
2026-04-25 05:25 43.08785 25.88459 22039 ft 254 kts 300°
2026-04-25 05:26 43.09601 25.86307 22038 ft 254 kts 300°
2026-04-25 05:26 43.10404 25.84188 22041 ft 255 kts 300°
2026-04-25 05:26 43.11221 25.82033 22040 ft 255 kts 300°
2026-04-25 05:26 43.12036 25.79878 22041 ft 255 kts 300°
2026-04-25 05:27 43.12852 25.77722 22041 ft 255 kts 300°
2026-04-25 05:27 43.13668 25.75563 22039 ft 255 kts 300°
2026-04-25 05:27 43.14482 25.73406 22041 ft 255 kts 300°
2026-04-25 05:27 43.15262 25.71219 22042 ft 256 kts 293°
2026-04-25 05:28 43.15701 25.68847 22045 ft 257 kts 285°
2026-04-25 05:28 43.16079 25.66450 22044 ft 257 kts 285°
2026-04-25 05:28 43.16465 25.64064 22045 ft 257 kts 285°
2026-04-25 05:28 43.16848 25.61706 22045 ft 257 kts 285°
2026-04-25 05:29 43.17235 25.59307 22045 ft 257 kts 285°
2026-04-25 05:29 43.17618 25.56912 22044 ft 257 kts 285°
2026-04-25 05:29 43.18003 25.54514 22040 ft 257 kts 285°
2026-04-25 05:29 43.18387 25.52117 22039 ft 257 kts 285°
2026-04-25 05:30 43.18770 25.49722 22040 ft 257 kts 285°
2026-04-25 05:30 43.19154 25.47320 22035 ft 257 kts 285°
2026-04-25 05:30 43.19536 25.44922 22035 ft 257 kts 285°
2026-04-25 05:30 43.19918 25.42525 22032 ft 257 kts 285°
2026-04-25 05:31 43.20298 25.40132 22034 ft 257 kts 285°
2026-04-25 05:31 43.20679 25.37739 22028 ft 257 kts 285°
2026-04-25 05:31 43.21058 25.35344 22027 ft 257 kts 285°
2026-04-25 05:31 43.21433 25.32978 22021 ft 257 kts 285°
2026-04-25 05:32 43.21811 25.30585 22022 ft 257 kts 285°
2026-04-25 05:32 43.22189 25.28192 22021 ft 257 kts 285°
2026-04-25 05:32 43.22567 25.25800 22018 ft 257 kts 285°
2026-04-25 05:32 43.22943 25.23409 22017 ft 257 kts 285°
2026-04-25 05:33 43.23321 25.21008 22013 ft 257 kts 285°
2026-04-25 05:33 43.23697 25.18613 22015 ft 257 kts 285°
2026-04-25 05:33 43.24073 25.16214 22017 ft 257 kts 285°
2026-04-25 05:33 43.24442 25.13852 22016 ft 257 kts 285°
2026-04-25 05:34 43.24816 25.11463 22011 ft 257 kts 285°
2026-04-25 05:34 43.25192 25.09053 22010 ft 257 kts 285°
2026-04-25 05:34 43.25562 25.06678 22017 ft 257 kts 285°
2026-04-25 05:34 43.25940 25.04252 22013 ft 257 kts 285°
2026-04-25 05:35 43.26308 25.01882 22024 ft 257 kts 285°
2026-04-25 05:35 43.26683 24.99465 22019 ft 256 kts 285°
2026-04-25 05:35 43.27049 24.97104 22007 ft 256 kts 285°
2026-04-25 05:35 43.27422 24.94690 22008 ft 256 kts 285°
2026-04-25 05:36 43.27787 24.92324 22009 ft 256 kts 285°
2026-04-25 05:36 43.28155 24.89944 22011 ft 256 kts 285°
2026-04-25 05:36 43.28523 24.87553 22008 ft 256 kts 285°
2026-04-25 05:36 43.28892 24.85151 22008 ft 256 kts 285°
2026-04-25 05:37 43.29259 24.82762 22011 ft 256 kts 285°
2026-04-25 05:37 43.29626 24.80368 22009 ft 256 kts 285°
2026-04-25 05:37 43.29993 24.77970 22015 ft 256 kts 285°
2026-04-25 05:37 43.30359 24.75575 22009 ft 256 kts 285°
2026-04-25 05:38 43.30725 24.73178 22006 ft 256 kts 285°
2026-04-25 05:38 43.31086 24.70815 21999 ft 256 kts 285°
2026-04-25 05:38 43.31451 24.68412 22001 ft 256 kts 285°
2026-04-25 05:38 43.31816 24.66009 22003 ft 256 kts 284°
2026-04-25 05:39 43.32180 24.63614 22004 ft 256 kts 284°
2026-04-25 05:39 43.32542 24.61221 22006 ft 256 kts 284°
2026-04-25 05:39 43.32904 24.58831 22009 ft 256 kts 284°
2026-04-25 05:39 43.33266 24.56434 22006 ft 256 kts 285°
2026-04-25 05:40 43.33626 24.54046 22001 ft 256 kts 284°
2026-04-25 05:40 43.33866 24.52455 22008 ft 256 kts 284°
2026-04-25 05:40 43.34226 24.50062 22013 ft 256 kts 284°
2026-04-25 05:40 43.34703 24.46889 22008 ft 256 kts 284°
2026-04-25 05:41 43.35063 24.44491 22002 ft 256 kts 284°
2026-04-25 05:41 43.35300 24.42903 22001 ft 256 kts 284°
2026-04-25 05:41 43.35658 24.40513 22003 ft 255 kts 284°
2026-04-25 05:41 43.36015 24.38118 22007 ft 255 kts 284°
2026-04-25 05:42 43.36371 24.35734 22009 ft 255 kts 284°
2026-04-25 05:42 43.36726 24.33350 22005 ft 255 kts 284°
2026-04-25 05:42 43.37081 24.30962 22005 ft 255 kts 284°
2026-04-25 05:42 43.37435 24.28575 22007 ft 255 kts 284°
2026-04-25 05:43 43.37789 24.26189 22007 ft 254 kts 284°
2026-04-25 05:43 43.38142 24.23802 22012 ft 255 kts 284°
2026-04-25 05:43 43.38495 24.21414 22007 ft 255 kts 284°
2026-04-25 05:43 43.38847 24.19024 22014 ft 255 kts 284°
2026-04-25 05:44 43.39199 24.16640 22010 ft 255 kts 284°
2026-04-25 05:44 43.39550 24.14249 22007 ft 255 kts 284°
2026-04-25 05:44 43.39897 24.11885 22007 ft 255 kts 284°
2026-04-25 05:44 43.40248 24.09491 22010 ft 254 kts 284°
2026-04-25 05:45 43.40597 24.07109 22006 ft 255 kts 284°
2026-04-25 05:45 43.40946 24.04722 22007 ft 255 kts 284°
2026-04-25 05:45 43.41295 24.02333 22013 ft 254 kts 284°
2026-04-25 05:45 43.41642 23.99947 22015 ft 254 kts 284°
2026-04-25 05:46 43.41990 23.97559 22012 ft 254 kts 284°
2026-04-25 05:46 43.42335 23.95187 22015 ft 254 kts 284°
2026-04-25 05:46 43.42681 23.92797 22009 ft 255 kts 284°
2026-04-25 05:46 43.43027 23.90409 22015 ft 254 kts 284°
2026-04-25 05:47 43.43372 23.88020 22019 ft 255 kts 284°
2026-04-25 05:47 43.43718 23.85630 22013 ft 255 kts 284°
2026-04-25 05:47 43.44062 23.83242 22017 ft 255 kts 284°
2026-04-25 05:47 43.44407 23.80846 22020 ft 255 kts 284°
2026-04-25 05:48 43.44750 23.78457 22015 ft 255 kts 284°
2026-04-25 05:48 43.45094 23.76062 22013 ft 255 kts 284°
2026-04-25 05:48 43.45433 23.73695 22013 ft 255 kts 284°
2026-04-25 05:48 43.45775 23.71303 22019 ft 255 kts 284°
2026-04-25 05:49 43.46118 23.68905 22021 ft 255 kts 284°
2026-04-25 05:49 43.46459 23.66507 22019 ft 255 kts 284°
2026-04-25 05:49 43.46801 23.64111 22013 ft 255 kts 284°
2026-04-25 05:49 43.47141 23.61713 22019 ft 255 kts 284°
2026-04-25 05:50 43.47481 23.59319 22016 ft 255 kts 284°
2026-04-25 05:50 43.47821 23.56922 22019 ft 255 kts 284°
2026-04-25 05:50 43.48160 23.54525 22015 ft 255 kts 284°
2026-04-25 05:50 43.48498 23.52130 22019 ft 255 kts 284°
2026-04-25 05:51 43.48832 23.49762 22018 ft 255 kts 284°
2026-04-25 05:51 43.49169 23.47366 22019 ft 255 kts 284°
2026-04-25 05:51 43.49506 23.44971 22021 ft 255 kts 284°
2026-04-25 05:51 43.49843 23.42573 22020 ft 255 kts 284°
2026-04-25 05:52 43.50179 23.40170 22024 ft 255 kts 284°
2026-04-25 05:52 43.50515 23.37771 22022 ft 255 kts 284°
2026-04-25 05:52 43.50850 23.35372 22020 ft 255 kts 284°
2026-04-25 05:52 43.51185 23.32973 22022 ft 255 kts 284°
2026-04-25 05:53 43.51519 23.30572 22018 ft 255 kts 284°
2026-04-25 05:53 43.52055 23.28271 22022 ft 251 kts 299°
2026-04-25 05:53 43.52937 23.26238 22026 ft 249 kts 304°
2026-04-25 05:53 43.53851 23.24208 22025 ft 249 kts 304°
2026-04-25 05:54 43.54761 23.22168 22025 ft 249 kts 304°
2026-04-25 05:54 43.55672 23.20121 22023 ft 249 kts 304°
2026-04-25 05:54 43.57487 23.16044 22025 ft 249 kts 304°
2026-04-25 05:55 43.58394 23.14007 22024 ft 249 kts 304°
2026-04-25 05:55 43.59301 23.11966 22022 ft 249 kts 304°
2026-04-25 05:55 43.60207 23.09925 22025 ft 249 kts 304°
2026-04-25 05:55 43.61113 23.07885 22022 ft 249 kts 304°
2026-04-25 05:56 43.62018 23.05845 22025 ft 249 kts 304°
2026-04-25 05:56 43.62911 23.03830 22026 ft 249 kts 304°
2026-04-25 05:56 43.63814 23.01792 22028 ft 249 kts 304°
2026-04-25 05:56 43.64717 22.99750 22028 ft 249 kts 304°
2026-04-25 05:57 43.65619 22.97712 22029 ft 249 kts 303°
2026-04-25 05:57 43.66521 22.95670 22029 ft 249 kts 304°
2026-04-25 05:57 43.67424 22.93628 22031 ft 249 kts 303°
2026-04-25 05:57 43.68326 22.91584 22031 ft 249 kts 304°
2026-04-25 05:58 43.69229 22.89537 22030 ft 249 kts 304°
2026-04-25 05:58 43.70131 22.87490 22039 ft 248 kts 303°
2026-04-25 05:58 43.71030 22.85447 22036 ft 248 kts 303°
2026-04-25 05:58 43.71930 22.83403 22035 ft 249 kts 303°
2026-04-25 05:59 43.72817 22.81387 22040 ft 249 kts 303°
2026-04-25 05:59 43.73715 22.79344 22040 ft 249 kts 303°
2026-04-25 05:59 43.74613 22.77300 22040 ft 249 kts 303°
2026-04-25 05:59 43.75511 22.75252 22038 ft 249 kts 303°
2026-04-25 06:00 43.76411 22.73200 22040 ft 249 kts 303°
2026-04-25 06:00 43.77310 22.71150 22040 ft 249 kts 303°
2026-04-25 06:00 43.78198 22.69122 22044 ft 249 kts 303°
2026-04-25 06:00 43.79094 22.67076 22044 ft 249 kts 303°
2026-04-25 06:01 43.79990 22.65026 22043 ft 248 kts 303°
2026-04-25 06:01 43.80885 22.62978 22044 ft 249 kts 303°
2026-04-25 06:01 43.81780 22.60929 22044 ft 249 kts 303°
2026-04-25 06:01 43.82678 22.58873 22046 ft 249 kts 303°
2026-04-25 06:02 43.83572 22.56822 22047 ft 249 kts 303°
2026-04-25 06:02 43.84466 22.54771 22050 ft 249 kts 303°
2026-04-25 06:02 43.85365 22.52707 22047 ft 249 kts 303°
2026-04-25 06:02 43.86260 22.50650 22050 ft 249 kts 303°
2026-04-25 06:03 43.87142 22.48621 22051 ft 249 kts 303°
2026-04-25 06:03 43.88036 22.46565 22054 ft 249 kts 303°
2026-04-25 06:03 43.88926 22.44514 22053 ft 248 kts 303°
2026-04-25 06:03 43.89816 22.42462 22055 ft 248 kts 303°
2026-04-25 06:04 43.90707 22.40409 22054 ft 249 kts 303°
2026-04-25 06:04 43.91553 22.38321 22059 ft 247 kts 299°
2026-04-25 06:04 43.92328 22.36185 22059 ft 248 kts 300°
2026-04-25 06:04 43.93116 22.34057 22059 ft 248 kts 300°
2026-04-25 06:05 43.93904 22.31925 22063 ft 249 kts 300°
2026-04-25 06:05 43.94689 22.29784 22072 ft 249 kts 300°
2026-04-25 06:05 43.95475 22.27639 22068 ft 249 kts 300°
2026-04-25 06:05 43.96259 22.25499 22073 ft 249 kts 300°
2026-04-25 06:06 43.97044 22.23356 22068 ft 249 kts 300°
2026-04-25 06:06 43.97828 22.21213 22069 ft 249 kts 300°
2026-04-25 06:06 43.98604 22.19093 22070 ft 249 kts 300°
2026-04-25 06:06 43.99388 22.16945 22069 ft 249 kts 300°
2026-04-25 06:07 44.00170 22.14803 22065 ft 249 kts 300°
2026-04-25 06:07 44.00952 22.12659 22065 ft 249 kts 300°
2026-04-25 06:07 44.01733 22.10518 22065 ft 248 kts 300°
2026-04-25 06:07 44.02515 22.08372 22068 ft 248 kts 300°
2026-04-25 06:08 44.03294 22.06230 22067 ft 248 kts 300°
2026-04-25 06:08 44.04074 22.04086 22070 ft 249 kts 300°
2026-04-25 06:08 44.04852 22.01944 22070 ft 248 kts 300°
2026-04-25 06:08 44.05631 21.99798 22068 ft 248 kts 300°
2026-04-25 06:09 44.06409 21.97654 22070 ft 248 kts 300°
2026-04-25 06:09 44.07186 21.95510 22069 ft 248 kts 300°
2026-04-25 06:09 44.07963 21.93365 22067 ft 248 kts 300°
2026-04-25 06:09 44.08739 21.91221 22068 ft 248 kts 300°
2026-04-25 06:10 44.09515 21.89076 22069 ft 248 kts 300°
2026-04-25 06:10 44.10282 21.86952 22072 ft 248 kts 300°
2026-04-25 06:10 44.11058 21.84805 22075 ft 248 kts 300°
2026-04-25 06:10 44.11832 21.82658 22075 ft 248 kts 300°
2026-04-25 06:11 44.12606 21.80511 22073 ft 248 kts 299°
2026-04-25 06:11 44.13378 21.78368 22071 ft 247 kts 300°
2026-04-25 06:11 44.14140 21.76251 22074 ft 247 kts 300°
2026-04-25 06:11 44.14913 21.74103 22073 ft 248 kts 299°
2026-04-25 06:12 44.15686 21.71952 22075 ft 248 kts 299°
2026-04-25 06:12 44.16458 21.69802 22076 ft 248 kts 299°
2026-04-25 06:12 44.17227 21.67657 22078 ft 247 kts 299°
2026-04-25 06:12 44.17996 21.65515 22078 ft 247 kts 300°
2026-04-25 06:13 44.18764 21.63371 22080 ft 247 kts 300°
2026-04-25 06:13 44.19533 21.61224 22079 ft 247 kts 299°
2026-04-25 06:13 44.20291 21.59105 22079 ft 247 kts 299°
2026-04-25 06:14 44.21829 21.54806 21628 ft 249 kts 299°
2026-04-25 06:14 44.22601 21.52644 21298 ft 249 kts 299°
2026-04-25 06:14 44.23372 21.50482 20969 ft 249 kts 299°
2026-04-25 06:14 44.24141 21.48322 20644 ft 248 kts 299°
2026-04-25 06:15 44.24908 21.46167 20319 ft 248 kts 299°
2026-04-25 06:15 44.25674 21.44016 20005 ft 248 kts 299°
2026-04-25 06:15 44.26442 21.41856 19688 ft 247 kts 298°
2026-04-25 06:15 44.27204 21.39708 19376 ft 247 kts 298°
2026-04-25 06:16 44.27965 21.37564 19068 ft 246 kts 298°
2026-04-25 06:16 44.28722 21.35430 18768 ft 245 kts 298°
2026-04-25 06:16 44.29472 21.33314 18467 ft 247 kts 298°
2026-04-25 06:16 44.30236 21.31155 18133 ft 248 kts 298°
2026-04-25 06:17 44.31004 21.28984 17779 ft 250 kts 298°
2026-04-25 06:17 44.31773 21.26810 17411 ft 250 kts 298°
2026-04-25 06:17 44.32477 21.24588 17069 ft 250 kts 289°
2026-04-25 06:17 44.32770 21.22193 16767 ft 250 kts 279°
2026-04-25 06:18 44.32963 21.19793 16512 ft 248 kts 279°
2026-04-25 06:18 44.33165 21.17407 16301 ft 245 kts 279°
2026-04-25 06:18 44.33367 21.15053 16065 ft 244 kts 279°
2026-04-25 06:18 44.33566 21.12693 15814 ft 244 kts 279°
2026-04-25 06:19 44.33764 21.10339 15565 ft 244 kts 279°
2026-04-25 06:19 44.33960 21.07988 15324 ft 244 kts 279°
2026-04-25 06:19 44.34157 21.05641 15086 ft 243 kts 279°
2026-04-25 06:19 44.34350 21.03328 14870 ft 242 kts 279°
2026-04-25 06:20 44.34545 21.00981 14659 ft 244 kts 279°
2026-04-25 06:20 44.34741 20.98612 14445 ft 246 kts 279°
2026-04-25 06:20 44.34938 20.96232 14210 ft 247 kts 279°
2026-04-25 06:20 44.35137 20.93826 13969 ft 249 kts 279°
2026-04-25 06:21 44.35332 20.91453 13730 ft 249 kts 279°
2026-04-25 06:21 44.35530 20.89044 13461 ft 249 kts 279°
2026-04-25 06:21 44.35726 20.86643 13203 ft 249 kts 279°
2026-04-25 06:21 44.35923 20.84239 12942 ft 249 kts 279°
2026-04-25 06:22 44.36119 20.81840 12682 ft 248 kts 279°
2026-04-25 06:22 44.36522 20.79520 12420 ft 244 kts 294°
2026-04-25 06:22 44.37355 20.77468 12170 ft 243 kts 304°
2026-04-25 06:22 44.38266 20.75478 11916 ft 243 kts 304°
2026-04-25 06:23 44.39173 20.73478 11669 ft 243 kts 303°
2026-04-25 06:23 44.40077 20.71475 11420 ft 243 kts 303°
2026-04-25 06:23 44.40979 20.69478 11176 ft 243 kts 303°
2026-04-25 06:23 44.41879 20.67484 10932 ft 242 kts 304°
2026-04-25 06:24 44.42778 20.65492 10691 ft 242 kts 303°
2026-04-25 06:24 44.43664 20.63526 10454 ft 241 kts 304°
2026-04-25 06:24 44.44287 20.62143 10285 ft 240 kts 304°
2026-04-25 06:24 44.45178 20.60164 10051 ft 240 kts 304°
2026-04-25 06:25 44.46067 20.58190 9791 ft 238 kts 304°
2026-04-25 06:25 44.46947 20.56230 9530 ft 237 kts 304°
2026-04-25 06:25 44.47826 20.54274 9263 ft 237 kts 304°
2026-04-25 06:25 44.48696 20.52337 9006 ft 238 kts 304°
2026-04-25 06:26 44.49581 20.50368 8742 ft 238 kts 304°
2026-04-25 06:26 44.50645 20.48634 8477 ft 236 kts 321°
2026-04-25 06:26 44.52054 20.47483 8218 ft 234 kts 339°
2026-04-25 06:26 44.53643 20.47026 7957 ft 234 kts 356°
2026-04-25 06:27 44.55259 20.47311 7716 ft 236 kts 14°
2026-04-25 06:27 44.56729 20.48312 7477 ft 236 kts 32°
2026-04-25 06:27 44.57898 20.49936 7254 ft 239 kts 51°
2026-04-25 06:27 44.58632 20.52026 7028 ft 241 kts 69°
2026-04-25 06:28 44.58832 20.53562 6884 ft 244 kts 82°
2026-04-25 06:28 44.58658 20.55929 6722 ft 244 kts 102°
2026-04-25 06:28 44.57959 20.58048 6748 ft 237 kts 118°
2026-04-25 06:28 44.57084 20.59978 6746 ft 233 kts 120°
2026-04-25 06:29 44.56219 20.61890 6746 ft 231 kts 119°
2026-04-25 06:29 44.55364 20.63791 6742 ft 229 kts 119°
2026-04-25 06:29 44.54515 20.65679 6747 ft 228 kts 120°
2026-04-25 06:29 44.53658 20.67585 6538 ft 235 kts 119°
2026-04-25 06:30 44.52775 20.69546 6220 ft 240 kts 119°
2026-04-25 06:30 44.52121 20.71680 5876 ft 239 kts 100°
2026-04-25 06:30 44.52009 20.73975 5647 ft 235 kts 81°
2026-04-25 06:30 44.52409 20.76131 5445 ft 230 kts 63°
2026-04-25 06:31 44.53261 20.77985 5254 ft 224 kts 45°
2026-04-25 06:31 44.54451 20.79359 5056 ft 220 kts 29°
2026-04-25 06:31 44.55789 20.80329 5000 ft 212 kts 15°
2026-04-25 06:31 44.57224 20.80636 4997 ft 206 kts 357°
2026-04-25 06:32 44.58599 20.80295 4996 ft 199 kts 340°
2026-04-25 06:32 44.59803 20.79392 4996 ft 195 kts 323°
2026-04-25 06:32 44.60738 20.78035 5001 ft 193 kts 306°
2026-04-25 06:32 44.61453 20.76451 4997 ft 191 kts 303°
2026-04-25 06:33 44.62161 20.74883 4993 ft 193 kts 304°
2026-04-25 06:33 44.62903 20.73237 5002 ft 206 kts 304°
2026-04-25 06:33 44.63688 20.71488 4997 ft 216 kts 303°
2026-04-25 06:33 44.64495 20.69686 4911 ft 222 kts 303°
2026-04-25 06:34 44.65320 20.67842 4646 ft 226 kts 303°
2026-04-25 06:34 44.66146 20.65990 4391 ft 221 kts 303°
2026-04-25 06:34 44.66953 20.64180 4131 ft 213 kts 303°
2026-04-25 06:34 44.67735 20.62423 3997 ft 209 kts 303°
2026-04-25 06:35 44.68494 20.60720 3983 ft 201 kts 303°
2026-04-25 06:35 44.69217 20.59093 3997 ft 193 kts 303°
2026-04-25 06:35 44.69936 20.57508 3983 ft 190 kts 304°
2026-04-25 06:35 44.70659 20.55939 3840 ft 195 kts 304°
2026-04-25 06:36 44.71402 20.54314 3667 ft 200 kts 303°
2026-04-25 06:36 44.72158 20.52657 3487 ft 202 kts 303°
2026-04-25 06:36 44.72921 20.50997 3340 ft 202 kts 303°
2026-04-25 06:36 44.73646 20.49407 3153 ft 184 kts 302°
2026-04-25 06:37 44.74285 20.47936 2930 ft 178 kts 302°
2026-04-25 06:37 44.74946 20.46464 2683 ft 174 kts 302°
2026-04-25 06:37 44.75562 20.45078 2458 ft 163 kts 302°
2026-04-25 06:37 44.76149 20.43756 2247 ft 154 kts 300°
2026-04-25 06:38 44.76679 20.42560 2067 ft 136 kts 302°
2026-04-25 06:38 44.77169 20.41456 1873 ft 129 kts 301°
2026-04-25 06:38 44.77637 20.40403 1703 ft 125 kts 299°
2026-04-25 06:38 44.78071 20.39422 1543 ft 112 kts 300°
2026-04-25 06:39 44.78480 20.38498 1387 ft 109 kts 301°
2026-04-25 06:39 44.78873 20.37609 1243 ft 106 kts 300°
2026-04-25 06:39 44.79264 20.36724 1097 ft 106 kts 300°
2026-04-25 06:39 44.79634 20.35889 959 ft 97 kts 299°
2026-04-25 06:40 44.79989 20.35089 829 ft 99 kts 299°
2026-04-25 06:40 44.80360 20.34257 663 ft 102 kts 298°
2026-04-25 06:40 44.80731 20.33430 525 ft 100 kts 299°
2026-04-25 06:40 44.81076 20.32649 366 ft 90 kts 297°
2026-04-25 06:41 44.81391 20.31952 322 ft 75 kts 294°
2026-04-25 06:41 44.81605 20.31433 315 ft 34 kts 304°
2026-04-25 06:41 44.81706 20.31222 317 ft 26 kts 303°
2026-04-25 06:41 44.81804 20.31005 318 ft 19 kts 299°
2026-04-25 06:42 44.81854 20.30811 318 ft 23 kts 282°
2026-04-25 06:42 44.81868 20.30608 318 ft 17 kts 273°
2026-04-25 06:42 44.81870 20.30526 318 ft 0 kts 272°
2026-04-25 06:43 44.81870 20.30521 318 ft 2 kts 271°
2026-04-25 06:44 44.81871 20.30449 318 ft 12 kts 273°
2026-04-25 06:44 44.81864 20.30307 317 ft 18 kts 217°
2026-04-25 06:44 44.81827 20.30259 318 ft 7 kts 265°
2026-04-25 06:44 44.81849 20.30190 317 ft 8 kts 301°
2026-04-25 06:45 44.81881 20.30116 318 ft 9 kts 301°
2026-04-25 06:45 44.81917 20.30034 317 ft 10 kts 302°
2026-04-25 06:45 44.81960 20.29936 317 ft 12 kts 302°
2026-04-25 06:45 44.81994 20.29862 318 ft 0 kts 302°
2026-04-25 06:46 44.82002 20.29843 318 ft 5 kts 302°
2026-04-25 06:47 44.82022 20.29798 318 ft 2 kts 302°
2026-04-25 06:47 44.82025 20.29792 318 ft 0 kts 301°
2026-04-25 06:47 44.82025 20.29791 318 ft 1 kts 301°
2026-04-25 06:47 44.82037 20.29766 318 ft 6 kts 303°
2026-04-25 06:48 44.82072 20.29686 318 ft 12 kts 302°
2026-04-25 06:48 44.82116 20.29585 319 ft 10 kts 285°
2026-04-25 06:48 44.82080 20.29510 318 ft 10 kts 212°
2026-04-25 06:48 44.82017 20.29455 318 ft 11 kts 212°
2026-04-25 06:49 44.81952 20.29396 318 ft 11 kts 211°
2026-04-25 06:49 44.81884 20.29338 318 ft 12 kts 211°
2026-04-25 06:49 44.81803 20.29267 318 ft 15 kts 211°
2026-04-25 06:49 44.81714 20.29189 318 ft 13 kts 212°
2026-04-25 06:50 44.81654 20.29137 318 ft 9 kts 212°
2026-04-25 06:50 44.81602 20.29091 318 ft 9 kts 211°
2026-04-25 06:50 44.81561 20.29051 318 ft 2 kts 237°
2026-04-25 06:50 44.81560 20.29031 318 ft 4 kts 291°
2026-04-25 06:51 44.81575 20.28987 318 ft 4 kts 330°
2026-04-25 06:51 44.81587 20.28986 318 ft 2 kts 34°
2026-04-25 06:51 44.81593 20.28996 318 ft 2 kts 41°
2026-04-25 06:51 44.81596 20.28999 318 ft 2 kts 31°
2026-04-25 06:52 44.81600 20.29002 318 ft 0 kts 31°
2026-04-25 06:52 44.81603 20.29005 318 ft 1 kts 31°
2026-04-25 06:52 44.81604 20.29006 318 ft 0 kts 31°